Martha's Vineyard, MA

11:07 AM EDT on April 24, 2017 (GMT -0400)
Martha's Vineyard

Weather History for KMVY - December, 2011

Change the Weather History Date:

Wednesday, December 21, 2011

  Actual Average Record
Temperature  
Mean Temperature 48 °F -  
Max Temperature 57 °F 41 °F 57 °F (2011)
Min Temperature 39 °F 26 °F 0 °F (1955)
Degree Days  
Heating Degree Days 17    
Moisture  
Dew Point 48 °F    
Average Humidity 83    
Maximum Humidity 94    
Minimum Humidity 63    
Precipitation  
Precipitation 0.23 in - - ()
Sea Level Pressure  
Sea Level Pressure 29.99 in    
Wind  
Wind Speed 12 mph (SSW)    
Max Wind Speed 22 mph    
Max Gust Speed 32 mph    
Visibility 9 miles    
Events Rain    
Averages and records for this station are not official NWS values.
T = Trace of Precipitation, MM = Missing Value Source: NWS Daily Summary

Daily Weather History Graph

Daily Weather History Graph

Search for Another Location

Airport or City:

Trip Planner

Search our weather history database for the weather conditions in past years. The results will help you decide how hot, cold, wet, or windy it might be!

Date:

Astronomy

Dec. 21, 2011 Rise Set
Actual Time 7:04 AM EST 4:15 PM EST
Civil Twilight 6:33 AM EST 4:47 PM EST
Nautical Twilight 5:58 AM EST 5:22 PM EST
Astronomical Twilight 5:24 AM EST 5:55 PM EST
Moon 3:33 AM EST (12/21) 1:33 PM EST (12/21)
Length of Visible Light 10h 13m
Length of Day
9h 10m
Waning Crescent, 12% of the Moon is Illuminated
Dec 21
Waning Crescent
Dec 24
New
Jan 1
First Quarter
Jan 9
Full
Jan 16
Last Quarter

Hourly Weather History & Observations

Time (EST) Temp. Windchill Dew Point Humidity Pressure Visibility Wind Dir Wind Speed Gust Speed Precip Events Conditions
12:53 AM 39.9 °F 34.5 °F 28.0 °F 63% 30.22 in 10.0 mi SE 8.1 mph - N/A   Overcast
1:53 AM 42.1 °F 37.1 °F 30.9 °F 65% 30.20 in 10.0 mi SSE 8.1 mph - N/A   Overcast
2:19 AM 42.8 °F 37.0 °F 32.0 °F 66% 30.20 in 10.0 mi SSE 10.4 mph - N/A   Overcast
2:53 AM 44.1 °F 38.6 °F 34.0 °F 68% 30.20 in 10.0 mi South 10.4 mph - N/A   Overcast
3:53 AM 45.0 °F 41.2 °F 36.0 °F 71% 30.16 in 10.0 mi SSE 6.9 mph - N/A   Overcast
4:53 AM 48.0 °F - 39.9 °F 74% 30.15 in 10.0 mi South 8.1 mph - N/A   Overcast
5:41 AM 48.2 °F - 41.0 °F 76% 30.15 in 10.0 mi South 10.4 mph - N/A   Overcast
5:50 AM 48.2 °F - 41.0 °F 76% 30.15 in 10.0 mi South 10.4 mph - N/A   Overcast
5:53 AM 48.9 °F - 41.0 °F 74% 30.15 in 10.0 mi South 9.2 mph - N/A   Overcast
6:53 AM 48.9 °F - 43.0 °F 80% 30.13 in 10.0 mi South 9.2 mph - N/A   Overcast
7:53 AM 51.1 °F - 45.0 °F 80% 30.11 in 10.0 mi South 12.7 mph - N/A   Overcast
8:25 AM 51.8 °F - 46.4 °F 82% 30.10 in 10.0 mi South 11.5 mph - N/A   Overcast
8:53 AM 53.1 °F - 46.0 °F 77% 30.09 in 10.0 mi South 10.4 mph - N/A   Overcast
9:14 AM 53.6 °F - 46.4 °F 77% 30.10 in 10.0 mi South 9.2 mph - N/A   Overcast
9:53 AM 53.1 °F - 46.9 °F 80% 30.08 in 10.0 mi South 12.7 mph - N/A   Overcast
10:48 AM 55.4 °F - 48.2 °F 77% 30.05 in 10.0 mi South 13.8 mph 23.0 mph N/A   Overcast
10:53 AM 55.0 °F - 48.0 °F 77% 30.04 in 10.0 mi South 13.8 mph - N/A   Overcast
11:53 AM 55.0 °F - 50.0 °F 83% 30.01 in 10.0 mi SSW 16.1 mph 23.0 mph 0.00 in   Overcast
2:53 PM 57.0 °F - 54.0 °F 89% 29.90 in 9.0 mi SSW 17.3 mph 23.0 mph 0.01 in Rain Light Rain
3:32 PM 57.2 °F - 53.6 °F 88% 29.88 in 8.0 mi SSW 15.0 mph - 0.00 in Rain Light Rain
3:40 PM 55.4 °F - 53.6 °F 94% 29.88 in 3.0 mi SSW 16.1 mph - 0.04 in Rain Heavy Rain
3:53 PM 57.0 °F - 54.0 °F 89% 29.88 in 6.0 mi SSW 15.0 mph - 0.05 in Rain Light Rain
4:00 PM 57.2 °F - 55.4 °F 94% 29.87 in 6.0 mi SSW 20.7 mph 28.8 mph 0.01 in Rain Light Rain
4:53 PM 57.0 °F - 55.0 °F 93% 29.85 in 9.0 mi SSW 18.4 mph - 0.03 in Rain Light Rain
5:53 PM 57.9 °F - 55.9 °F 93% 29.83 in 10.0 mi SSW 20.7 mph 32.2 mph 0.01 in Rain Light Rain
6:27 PM 57.2 °F - 55.4 °F 94% 29.82 in 8.0 mi SW 21.9 mph 29.9 mph 0.00 in Rain Light Rain
6:38 PM 57.2 °F - 55.4 °F 94% 29.83 in 5.0 mi SW 20.7 mph 27.6 mph 0.02 in Rain Light Rain
6:50 PM 57.2 °F - 55.4 °F 94% 29.82 in 6.0 mi SW 19.6 mph 27.6 mph 0.04 in Rain Light Rain
6:53 PM 57.0 °F - 55.0 °F 93% 29.82 in 7.0 mi SW 17.3 mph 27.6 mph 0.04 in Rain Light Rain
7:00 PM 57.2 °F - 55.4 °F 94% 29.81 in 6.0 mi SW 18.4 mph 25.3 mph 0.01 in Rain Rain
7:53 PM 57.0 °F - 55.0 °F 93% 29.78 in 6.0 mi SW 17.3 mph 26.5 mph 0.08 in Rain Light Rain
8:53 PM 57.9 °F - 55.0 °F 90% 29.77 in 9.0 mi SW 17.3 mph 24.2 mph 0.01 in   Overcast
9:53 PM 57.9 °F - 55.9 °F 93% 29.75 in 9.0 mi SW 19.6 mph 26.5 mph N/A   Overcast
10:53 PM 57.9 °F - 55.0 °F 90% 29.73 in 9.0 mi SW 12.7 mph 25.3 mph N/A   Overcast